| time (UTC) | temp F | wind direction | speed MPH | gust MPH | rain 1hr in | rain 24hr in | rain mn in | humidity % | barometer mb |
| 20260508034550 | 44 | 0 | 1.0 | 4.0 | 0.00 | 0.00 | 0.00 | 45 | 1009.0 |
| 20260508033049 | 45 | 258 | 1.0 | 3.0 | 0.00 | 0.00 | 0.00 | 45 | 1009.0 |
| 20260508031554 | 45 | 321 | 1.0 | 3.0 | 0.00 | 0.00 | 0.00 | 44 | 1009.0 |
| 20260508030057 | 47 | 0 | 0.0 | 0.0 | 0.00 | 0.00 | 0.00 | 41 | 1009.1 |
| 20260508024608 | 48 | 0 | 0.0 | 0.0 | 0.00 | 0.00 | 0.00 | 38 | 1009.1 |
| 20260508023046 | 49 | 0 | 0.0 | 0.0 | 0.00 | 0.00 | 0.00 | 37 | 1009.1 |
| 20260508021549 | 49 | 0 | 0.0 | 0.0 | 0.00 | 0.00 | 0.00 | 36 | 1008.9 |
| 20260508020050 | 49 | 0 | 0.0 | 0.0 | 0.00 | 0.00 | 0.00 | 36 | 1008.8 |
| 20260508014551 | 51 | 0 | 0.0 | 0.0 | 0.00 | 0.00 | 0.00 | 35 | 1008.6 |
| 20260508013045 | 52 | 0 | 0.0 | 0.0 | 0.00 | 0.00 | 0.00 | 34 | 1008.5 |
| 20260508011547 | 53 | 0 | 0.0 | 0.0 | 0.00 | 0.00 | 0.00 | 34 | 1008.4 |
| 20260508010054 | 55 | 0 | 0.0 | 0.0 | 0.00 | 0.00 | 0.00 | 32 | 1008.3 |
| 20260508004552 | 55 | 0 | 0.0 | 2.0 | 0.00 | 0.00 | 0.00 | 30 | 1008.2 |
| 20260508003049 | 56 | 319 | 1.0 | 6.0 | 0.00 | 0.00 | 0.00 | 29 | 1008.2 |
| 20260508001550 | 56 | 318 | 3.0 | 9.0 | 0.00 | 0.00 | 0.00 | 28 | 1008.2 |
| 20260508000048 | 56 | 328 | 2.0 | 4.0 | 0.00 | 0.00 | 0.00 | 29 | 1008.4 |
| 20260507234542 | 56 | 309 | 4.0 | 10.0 | 0.00 | 0.00 | 0.00 | 28 | 1008.5 |
| 20260507233043 | 56 | 348 | 4.0 | 11.0 | 0.00 | 0.00 | 0.00 | 28 | 1008.5 |
| 20260507231544 | 56 | 348 | 4.0 | 12.0 | 0.00 | 0.00 | 0.00 | 28 | 1008.6 |
| 20260507230100 | 56 | 345 | 3.0 | 9.0 | 0.00 | 0.00 | 0.00 | 28 | 1008.7 |
| 20260507224551 | 56 | 316 | 4.0 | 9.0 | 0.00 | 0.00 | 0.00 | 28 | 1008.7 |
| 20260507223046 | 56 | 309 | 5.0 | 12.0 | 0.00 | 0.00 | 0.00 | 28 | 1008.8 |
| 20260507221544 | 56 | 344 | 7.0 | 13.0 | 0.00 | 0.00 | 0.00 | 27 | 1008.8 |
| 20260507220053 | 56 | 329 | 3.0 | 11.0 | 0.00 | 0.00 | 0.00 | 27 | 1008.8 |
| 20260507214548 | 56 | 318 | 4.0 | 12.0 | 0.00 | 0.00 | 0.00 | 27 | 1008.9 |
| 20260507213049 | 55 | 345 | 5.0 | 12.0 | 0.00 | 0.00 | 0.00 | 28 | 1009.0 |
| 20260507211547 | 55 | 341 | 5.0 | 11.0 | 0.00 | 0.00 | 0.00 | 28 | 1009.1 |
| 20260507210058 | 55 | 327 | 6.0 | 13.0 | 0.00 | 0.00 | 0.00 | 28 | 1009.2 |
| 20260507204546 | 55 | 309 | 4.0 | 11.0 | 0.00 | 0.00 | 0.00 | 28 | 1009.2 |
| 20260507203114 | 54 | 287 | 2.0 | 11.0 | 0.00 | 0.00 | 0.00 | 31 | 1009.4 |
| 20260507201541 | 54 | 323 | 5.0 | 14.0 | 0.00 | 0.00 | 0.00 | 28 | 1009.6 |
| 20260507200037 | 54 | 344 | 4.0 | 9.0 | 0.00 | 0.00 | 0.00 | 29 | 1009.7 |
| 20260507194555 | 53 | 351 | 3.0 | 13.0 | 0.00 | 0.00 | 0.00 | 32 | 1009.9 |
| 20260507193044 | 53 | 315 | 5.0 | 15.0 | 0.00 | 0.00 | 0.00 | 30 | 1010.2 |
| 20260507191546 | 53 | 278 | 3.0 | 14.0 | 0.00 | 0.00 | 0.00 | 31 | 1010.0 |
| 20260507190047 | 53 | 261 | 5.0 | 12.0 | 0.00 | 0.00 | 0.00 | 29 | 1010.0 |
| 20260507184538 | 52 | 334 | 7.0 | 12.0 | 0.00 | 0.00 | 0.00 | 30 | 1010.1 |
| 20260507183042 | 52 | 280 | 4.0 | 15.0 | 0.00 | 0.00 | 0.00 | 32 | 1010.3 |
| 20260507181544 | 52 | 339 | 2.0 | 12.0 | 0.00 | 0.00 | 0.00 | 34 | 1010.3 |
| 20260507180042 | 51 | 328 | 5.0 | 13.0 | 0.00 | 0.00 | 0.00 | 33 | 1010.5 |
| 20260507174545 | 50 | 325 | 5.0 | 17.0 | 0.00 | 0.00 | 0.00 | 33 | 1010.5 |
| 20260507173109 | 50 | 325 | 6.0 | 12.0 | 0.00 | 0.00 | 0.00 | 33 | 1010.7 |
| 20260507171541 | 50 | 338 | 3.0 | 11.0 | 0.00 | 0.00 | 0.00 | 35 | 1010.8 |
| 20260507170044 | 49 | 329 | 5.0 | 12.0 | 0.00 | 0.00 | 0.00 | 34 | 1011.0 |
| 20260507164542 | 49 | 333 | 6.0 | 14.0 | 0.00 | 0.00 | 0.00 | 36 | 1011.0 |
| 20260507163041 | 49 | 323 | 4.0 | 11.0 | 0.00 | 0.00 | 0.00 | 37 | 1011.1 |
| 20260507161549 | 48 | 338 | 3.0 | 8.0 | 0.00 | 0.00 | 0.00 | 38 | 1011.1 |
| 20260507160049 | 47 | 351 | 2.0 | 6.0 | 0.00 | 0.00 | 0.00 | 42 | 1011.3 |
| 20260507154542 | 47 | 5 | 4.0 | 10.0 | 0.00 | 0.00 | 0.00 | 40 | 1011.3 |
| 20260507153054 | 47 | 284 | 1.0 | 8.0 | 0.00 | 0.00 | 0.00 | 46 | 1011.5 |
| 20260507151546 | 47 | 349 | 3.0 | 5.0 | 0.00 | 0.00 | 0.00 | 47 | 1011.5 |
| 20260507150045 | 45 | 0 | 0.0 | 5.0 | 0.00 | 0.00 | 0.00 | 51 | 1011.6 |
| 20260507144543 | 44 | 45 | 2.0 | 5.0 | 0.00 | 0.00 | 0.00 | 54 | 1011.6 |
| 20260507143059 | 44 | 341 | 1.0 | 4.0 | 0.00 | 0.00 | 0.00 | 57 | 1011.7 |
| 20260507141550 | 43 | 342 | 1.0 | 4.0 | 0.00 | 0.00 | 0.00 | 60 | 1011.6 |
| 20260507140050 | 41 | 269 | 1.0 | 3.0 | 0.00 | 0.00 | 0.00 | 64 | 1011.7 |
| 20260507134546 | 40 | 269 | 1.0 | 3.0 | 0.00 | 0.00 | 0.00 | 66 | 1011.8 |
| 20260507133111 | 38 | 269 | 1.0 | 3.0 | 0.00 | 0.00 | 0.00 | 69 | 1011.9 |
| 20260507131546 | 37 | 210 | 1.0 | 3.0 | 0.00 | 0.00 | 0.00 | 72 | 1011.9 |
| 20260507130057 | 36 | 210 | 1.0 | 3.0 | 0.00 | 0.00 | 0.00 | 77 | 1012.0 |
| 20260507124537 | 34 | 210 | 1.0 | 3.0 | 0.00 | 0.00 | 0.00 | 80 | 1012.0 |
| 20260507123050 | 33 | 210 | 1.0 | 3.0 | 0.00 | 0.00 | 0.00 | 81 | 1012.0 |
| 20260507121545 | 32 | 210 | 2.0 | 3.0 | 0.00 | 0.00 | 0.00 | 80 | 1011.9 |
| 20260507120050 | 31 | 0 | 0.0 | 0.0 | 0.00 | 0.00 | 0.00 | 79 | 1011.9 |
| 20260507114545 | 31 | 0 | 0.0 | 0.0 | 0.00 | 0.00 | 0.00 | 79 | 1011.8 |
| 20260507113043 | 31 | 0 | 0.0 | 0.0 | 0.00 | 0.00 | 0.00 | 79 | 1011.7 |
| 20260507111543 | 30 | 0 | 0.0 | 0.0 | 0.00 | 0.00 | 0.00 | 80 | 1011.7 |
| 20260507110045 | 30 | 0 | 0.0 | 3.0 | 0.00 | 0.00 | 0.00 | 80 | 1011.7 |
| 20260507104543 | 30 | 209 | 0.0 | 2.0 | 0.00 | 0.00 | 0.00 | 79 | 1011.7 |
| 20260507103051 | 31 | 209 | 1.0 | 3.0 | 0.00 | 0.00 | 0.00 | 79 | 1011.8 |
| 20260507101549 | 31 | 209 | 2.0 | 4.0 | 0.00 | 0.00 | 0.00 | 79 | 1011.7 |
| 20260507100043 | 31 | 210 | 2.0 | 4.0 | 0.00 | 0.00 | 0.00 | 78 | 1011.7 |
| 20260507094557 | 31 | 209 | 1.0 | 4.0 | 0.00 | 0.00 | 0.00 | 77 | 1011.9 |
| 20260507093047 | 31 | 211 | 2.0 | 4.0 | 0.00 | 0.00 | 0.00 | 78 | 1012.0 |
| 20260507091546 | 32 | 211 | 2.0 | 4.0 | 0.00 | 0.00 | 0.00 | 78 | 1012.1 |
| 20260507090047 | 32 | 211 | 2.0 | 5.0 | 0.00 | 0.00 | 0.00 | 78 | 1012.0 |
| 20260507084547 | 32 | 211 | 3.0 | 5.0 | 0.00 | 0.00 | 0.00 | 78 | 1012.1 |
| 20260507083043 | 32 | 211 | 3.0 | 5.0 | 0.00 | 0.00 | 0.00 | 78 | 1012.1 |
| 20260507081546 | 32 | 211 | 3.0 | 5.0 | 0.00 | 0.00 | 0.00 | 77 | 1012.0 |
| 20260507080048 | 33 | 213 | 1.0 | 4.0 | 0.00 | 0.00 | 0.00 | 75 | 1012.2 |
| 20260507074549 | 33 | 213 | 2.0 | 4.0 | 0.00 | 0.00 | 0.00 | 75 | 1012.3 |
| 20260507073048 | 33 | 215 | 2.0 | 3.0 | 0.00 | 0.00 | 0.00 | 76 | 1012.5 |
| 20260507071541 | 32 | 217 | 2.0 | 4.0 | 0.00 | 0.00 | 0.00 | 78 | 1012.5 |
| 20260507070054 | 32 | 0 | 0.0 | 0.0 | 0.00 | 0.00 | 0.00 | 77 | 1012.8 |
| 20260507064547 | 32 | 0 | 0.0 | 2.0 | 0.00 | 0.00 | 0.00 | 77 | 1013.0 |
| 20260507063041 | 33 | 0 | 0.0 | 1.0 | 0.00 | 0.00 | 0.00 | 75 | 1013.0 |
| 20260507061543 | 34 | 0 | 0.0 | 0.0 | 0.00 | 0.00 | 0.00 | 75 | 1013.1 |
| 20260507060045 | 34 | 0 | 0.0 | 2.0 | 0.00 | 0.00 | 0.00 | 75 | 1013.2 |
| 20260507054542 | 34 | 299 | 1.0 | 3.0 | 0.00 | 0.00 | 0.00 | 75 | 1013.2 |
| 20260507053039 | 34 | 0 | 0.0 | 0.0 | 0.00 | 0.00 | 0.00 | 75 | 1013.2 |
| 20260507051549 | 35 | 0 | 0.0 | 0.0 | 0.00 | 0.00 | 0.00 | 73 | 1013.2 |
| 20260507050048 | 35 | 0 | 0.0 | 0.0 | 0.00 | 0.00 | 0.00 | 71 | 1013.3 |
| 20260507044558 | 35 | 0 | 0.0 | 0.0 | 0.00 | 0.00 | 0.00 | 70 | 1013.3 |
| 20260507043049 | 35 | 0 | 0.0 | 0.0 | 0.00 | 0.00 | 0.00 | 68 | 1013.4 |
| 20260507041549 | 35 | 0 | 0.0 | 0.0 | 0.00 | 0.00 | 0.00 | 67 | 1013.5 |
| 20260507040049 | 36 | 0 | 0.0 | 0.0 | 0.00 | 0.00 | 0.00 | 66 | 1013.6 |